Regional Weather Roundup
Issued by NWS Burlington, VT

Home | Current Version | Previous Version | Graphics & Text | Print | Product List | Glossary On
Versions: 1 2 3 4 5 6 7 8 9 10 11 12 13 14 15 16 17 18 19 20 21 22 23 24 25 26 27 28 29 30 31 32 33 34 35 36 37 38 39 40 41 42 43 44 45 46 47 48 49 50
000
ASUS41 KBTV 282110
RWRBTV
VERMONT REGIONAL WEATHER ROUNDUP
NATIONAL WEATHER SERVICE BURLINGTON VT
500 PM EDT WED SEP 28 2016

NOTE: "FAIR" INDICATES FEW OR NO CLOUDS BELOW 12,000 FEET WITH NO
SIGNIFICANT WEATHER AND/OR OBSTRUCTIONS TO VISIBILITY.

* THESE REPORTS ARE NOT UNDER NWS QUALITY CONTROL AND/OR DO NOT
  REPORT WEATHER SUCH AS PRECIPITATION AND FOG.

VTZ001>019-282200-
_____VERMONT_____


CITY           SKY/WX    TMP DP  RH WIND       PRES   REMARKS
BURLINGTON     MOSUNNY   70  48  45 S6        30.23S
MONTPELIER     SUNNY     64  49  57 S6        30.29R
MORRISVILLE    PTSUNNY   69  48  47 CALM      30.26R
ST. JOHNSBURY*   N/A     65  52  62 MISG      30.24R
LYNDONVILLE*   FAIR      63  51  64 NE5       30.28R
MIDDLEBURY*    FAIR      65  49  56 S9        30.25R
RUTLAND*       CLOUDY    60  49  66 SE9G18    30.26R
SPRINGFIELD    CLOUDY    58  48  69 NE8       30.29S
HIGHGATE*      CLOUDY    66  57  72 CALM      30.24R
NEWPORT*       CLOUDY    60  55  82 CALM      30.28S
BENNINGTON     MOSUNNY   61  48  62 SE8       30.23S
SUTTON*          N/A     59 N/A N/A MISG        N/A

_____LAKE CHAMPLAIN_____


CITY           SKY/WX    TMP DP  RH WIND       PRES   REMARKS
BURTON ISLAND*   N/A     73  57  56 NW1         N/A
COLCHESTER RF*   N/A     68  57  68 N5          N/A
DIAMOND ISL*     N/A     68  50  52 SE7         N/A

$$

NYZ007-026>031-035-052-083-087-282200-
_____NORTHERN NEW YORK_____


CITY           SKY/WX    TMP DP  RH WIND       PRES   REMARKS
PLATTSBURGH    SUNNY     68  54  60 N5        30.23R
SARANAC LAKE   SUNNY     65  42  43 E10       30.21R
MASSENA        MOSUNNY   68  54  60 NE16      30.21R
OGDENSBURG*    MOSUNNY   70  57  64 E9G16     30.19R
POTSDAM*       CLOUDY    66  61  82 NE7       30.19S
WATERTOWN      SUNNY     72  48  42 SE9       30.14R
FT DRUM        MOSUNNY   70  51  49 S9        30.15R
ALBANY         MOSUNNY   65  50  58 E7        30.21R
GLENS FALLS    SUNNY     65  49  56 E13       30.22R

$$
NHZ002-005-011-282200-
_____NEW HAMPSHIRE_____


CITY           SKY/WX    TMP DP  RH WIND       PRES   REMARKS
LEBANON        MOSUNNY   60  50  69 SE6       30.29R
KEENE          CLOUDY    55  49  80 NE6       30.29R
MT WASHINGTON  PTSUNNY   39  34  81 E9          N/A
PLYMOUTH       FAIR      58  48  69 SE5       30.31R
WHITEFIELD     SUNNY     62  47  57 E12G21    30.28R

$$

_____REGIONAL QUEBEC LOCATIONS_____


CITY           SKY/WX    TMP DP  RH WIND       PRES   REMARKS
MONTREAL       MOSUNNY   66  54  63 NE18      30.25R
QUEBEC CITY    MOSUNNY   55  43  62 E13G26    30.40R
SHERBROOKE     MOSUNNY   63  52  67 E7        30.29R

_____REGIONAL ONTARIO LOCATIONS_____


CITY           SKY/WX    TMP DP  RH WIND       PRES   REMARKS
OTTAWA         MOSUNNY   64  54  68 E18       30.22R

______KEY______
VSB  - VISIBILITY IN MILES
WCI  - WIND CHILL INDEX
HX   - HEAT INDEX
$$
NNNN




USA.gov is the U.S. government's official web portal to all federal, state and local government web resources and services.